Location: Contre
(49.7477°N, 2.0963°E)
Time: 12:00:38
(UTC+00:00)

Meteor 1-11 - Pass Details

Date: 03 February 2023
Orbit: 839 x 888 km, 81.2° (Epoch: 24 March)

Event Time Altitude Azimuth Distance (km) Brightness Sun altitude
Rises 17:45:46 0° 173° (S) 3,483 7.5 -9.4°
Reaches altitude 10° 17:48:16 10° 168° (SSE) 2,547 6.7 -9.8°
Maximum altitude 17:53:51 50° 94° (E) 1,114 4.5 -10.6°
Drops below altitude 10° 17:59:26 10° 21° (NNE) 2,548 6.4 -11.5°
Sets 18:01:56 0° 16° (NNE) 3,485 7.1 -11.9°
